Regional Weather Roundup
Issued by NWS

Home | Current Version | Previous Version | Graphics & Text | Print | Product List | Glossary On
Versions: 1 2 3 4 5 6 7 8 9 10 11 12 13 14 15 16 17 18 19 20 21 22 23 24 25 26 27 28 29 30 31 32 33 34 35 36 37 38 39 40 41 42 43 44 45 46 47 48 49 50
000
ASUS43 KLMK 201410
RWRKY
KENTUCKY REGIONAL WEATHER ROUNDUP
NATIONAL WEATHER SERVICE LOUISVILLE KY
1000 AM EDT MON OCT 20 2014

NOTE "FAIR" INDICATES FEW OR NO CLOUDS BELOW 12,000 FEET
WITH NO SIGNIFICANT WEATHER AND/OR OBSTRUCTIONS TO VISIBILITY.

KYZ001>023-026-027-061>063-070>075-201500-
WESTERN AND SOUTH CENTRAL KENTUCKY

CITY           SKY/WX    TMP DP  RH WIND       PRES   REMARKS
PADUCAH        CLOUDY    54  48  80 SW7       30.05R
HENDERSON      PTSUNNY   54  46  76 SW10      30.03S
OWENSBORO      PTSUNNY   52  49  89 S10       30.04S
HOPKINSVILLE   MOSUNNY   53  51  94 SW5       30.08S FOG
BOWLING GREEN  PTSUNNY   53  46  77 SW7       30.09R
GLASGOW        CLOUDY    50  48  93 CALM      30.08F
$$

KYZ024-025-028>034-038-045-046-053-201500-
NORTH CENTRAL KENTUCKY

CITY           SKY/WX    TMP DP  RH WIND       PRES   REMARKS
LOUISVILLE/SDF LGT RAIN  51  48  89 S7        30.04F
LOUISVILLE/LOU LGT RAIN  49  48  97 S5        30.05S
FORT KNOX      CLOUDY    48  46  93 S5        30.04S
$$

KYZ035>037-039>044-047>052-055>060-089>105-201500-
NORTHEAST KENTUCKY

CITY           SKY/WX    TMP DP  RH WIND       PRES   REMARKS
LEXINGTON      LGT RAIN  51  44  77 S9        30.06R
COVINGTON      PTSUNNY   51  45  79 S10       30.00F
FRANKFORT      CLOUDY    49  45  86 SW7       30.05R
$$

KYZ054-064>069-076>088-106>120-201500-
SOUTHEAST KENTUCKY

CITY           SKY/WX    TMP DP  RH WIND       PRES   REMARKS
JACKSON        PTSUNNY   47  42  83 CALM      30.08S
LONDON         MOSUNNY   51  44  77 S8        30.10S
SOMERSET       CLOUDY    45  45 100 CALM      30.11S
MIDDLESBORO    SUNNY     46  44  91 CALM      30.12F
MONTICELLO     FOG       51  47  86 CALM      30.11F VSB 3/4
$$



USA.gov is the U.S. government's official web portal to all federal, state and local government web resources and services.